Regional Weather Roundup
Issued by NWS

Home | Current Version | Previous Version | Graphics & Text | Print | Product List | Glossary On
Versions: 1 2 3 4 5 6 7 8 9 10 11 12 13 14 15 16 17 18 19 20 21 22 23 24 25 26 27 28 29 30 31 32 33 34 35 36 37 38 39 40 41 42 43 44 45
000
ASUS45 KTFX 032310
RWRMT
MONTANA REGIONAL WEATHER ROUNDUP
NATIONAL WEATHER SERVICE GREAT FALLS MT
500 PM MDT MON AUG 03 2015

NOTE: "FAIR" INDICATES FEW OR NO CLOUDS BELOW 12000 FEET WITH NO
SIGNIFICANT WEATHER AND/OR OBSTRUCTIONS TO VISIBILITY.

MTZ001>007-043-040000-
WEST OF THE DIVIDE

CITY           SKY/WX    TMP DP  RH WIND       PRES   REMARKS
KALISPELL      MOCLDY    95  35  12 S6        29.73F SMOKE   HX  90
MISSOULA       PTSUNNY   93  37  14 CALM      29.77F
BUTTE          PTSUNNY   85  39  19 E13       29.95F
MULLAN PASS    PTSUNNY   74  35  24 NW8G17    30.04F
DEER LODGE       N/A     90  41  18 E8        29.90S
EUREKA           N/A     95  34  11 CALM      29.72F HX  90
HAMILTON         N/A     90  48  24 S2        29.81S
LIBBY            N/A     97  34  11 W7        29.73F HX  91
PLAINS           N/A     96  43  16 W9        29.75F HX  92
RONAN            N/A     93  42  17 W1        29.84F
$$

MTZ008-052>055-040000-
SOUTHWEST MONTANA

CITY           SKY/WX    TMP DP  RH WIND       PRES   REMARKS
BOZEMAN        PTSUNNY   87  52  29 CALM      29.89F
DILLON         CLOUDY    83  49  30 S13       29.94F
W YELLOWSTONE  CLOUDY    68  46  45 S14       30.14F
$$

MTZ009-010-012-014-046-048-049-054-040000-
EAST SLOPES AND CENTRAL MONTANA

CITY           SKY/WX    TMP DP  RH WIND       PRES   REMARKS
CUT BANK       SUNNY     93  39  15 SE8       29.82F
GREAT FALLS    SUNNY     95  44  17 NE9       29.82F HX  91
MALMSTROM AFB  SUNNY     94  42  16 NE6       29.80F HX  90
HELENA         MOSUNNY   94  41  16 E14       29.81F HX  90
CONRAD           N/A     93  47  20 E7        29.87
$$

MTZ011-013-016-021-045-047-050-051-040000-
NORTH CENTRAL MONTANA

CITY           SKY/WX    TMP DP  RH WIND       PRES   REMARKS
HAVRE          MOSUNNY   92  52  25 E18       29.81F
LEWISTOWN      MOSUNNY   90  45  21 E16       29.91
CHINOOK          N/A     86  55  35 E17       29.82F
FORT BENTON      N/A     93  46  20 E13       29.78F
$$

MTZ017>020-022>027-061-062-040000-
NORTHEAST MONTANA

CITY           SKY/WX    TMP DP  RH WIND       PRES   REMARKS
GLASGOW        SUNNY     87  46  24 E12G22    29.90F
JORDAN           N/A     91  44  19 E15G21    29.89F
SIDNEY         SUNNY    N/A N/A N/A NE6       29.94F
WOLF POINT     SUNNY     88  47  24 E13       29.92F
MALTA            N/A     89  52  28 E8        29.86F
POPLAR           N/A     84  45  24 E5        29.93F
SCOBEY           N/A     84  51  31 NE5       29.96F
$$

MTZ028>42-056>058-040000-
SOUTHCENTRAL AND SOUTHEAST MONTANA

CITY           SKY/WX    TMP DP  RH WIND       PRES   REMARKS
BAKER          SUNNY     86  48  26 E10       29.96F
BILLINGS       CLOUDY    91  47  21 E14       29.88F
LIVINGSTON     MOSUNNY   89  42  19 E17       29.92F
MILES CITY     SUNNY     93  46  19 NE9       29.88F
FORSYTH          N/A     91  45  19 E6        29.86F
LAUREL           N/A     92  50  23 NE6       29.87F
ROUNDUP          N/A     92  42  17 E7        29.82F
$$

REGIONAL REPORTS...DAKOTAS

CITY           SKY/WX    TMP DP  RH WIND       PRES   REMARKS
WILLISTON      SUNNY     85  41  21 MISG      29.95F
MINOT          SUNNY     79  44  28 NW8G16    29.96F
DICKINSON      MOSUNNY   82  49  31 E7        29.96F
BISMARCK       SUNNY     81  48  31 CALM      29.96F
GRAND FORKS    MOSUNNY   78  45  30 N14       29.91S
FARGO          SUNNY     79  46  31 NW10      29.92S
BUFFALO SD       N/A     85  51  31 SE13      29.90F
RAPID CITY     PTSUNNY   81  61  50 SE10      29.95F
$$

REGIONAL REPORTS...WYOMING/IDAHO/WASHINGTON

CITY           SKY/WX    TMP DP  RH WIND       PRES   REMARKS
GILLETTE       PTSUNNY   86  53  32 E7G22     29.96F
SHERIDAN       CLOUDY    90  52  27 S12       29.90F
BUFFALO WY     PTSUNNY   83  51  33 SE6       30.00F
CODY           PTSUNNY   79  48  34 N10       29.96F
YELLOWSTONE LA   N/A     68  41  37 VRB7      30.22F
IDAHO FALLS    CLOUDY    73  50  44 VRB3      30.06F
SALMON         CLOUDY    86  41  20 W9G25     29.84R
BOISE          CLOUDY    90  45  21 CALM      29.88F
SPOKANE        CLOUDY    88  40  18 SW14      29.82R
$$

REGIONAL REPORTS...ALBERTA

CITY           SKY/WX    TMP DP  RH WIND       PRES   REMARKS
EDMONTON       SUNNY     84  57  39 S16       29.77F
CALGARY        CLOUDY    84  52  32 E9G18     29.81F
LETHBRIDGE     MOSUNNY   91  46  21 E7        29.77F
MEDICINE HAT   CLOUDY    95  45  17 SE15G21   29.78F HX  91
MILK RIVER       N/A     91  46  21 SE12        N/A
ONEFOUR          N/A     88  48  25 E22G29      N/A
$$

REGIONAL REPORTS...SASKATCHEWAN

CITY           SKY/WX    TMP DP  RH WIND       PRES   REMARKS
SWIFT CURRENT  MOSUNNY   79  54  41 SE14G25   29.94F
REGINA         MOSUNNY   81  50  34 N6        29.98F
SASKATOON      PTSUNNY   81  48  32 SE9G17    29.97F
CYPRESS HILLS    N/A     77  48  36 SE13G20     N/A
VAL MARIE        N/A     84  48  28 SE13G18     N/A
ROCKGLEN         N/A     79  52  38 NE5         N/A
ASSINIBOIA       N/A     84  54  34 SE16G25     N/A
$$



USA.gov is the U.S. government's official web portal to all federal, state and local government web resources and services.